When you browse on this site, cookies collect data to enhance your experience and personalize the content and advertising you see.
Visit our Privacy Policy to learn more. By continuing to use the site, you agree to this use of cookies and data.
  • In Hungary
  • List of Countries
  • For 7 days
  • Water Temperature
  • Satellite Maps
  • Weather Map
  • News
  • Weather Widgets
  • user-avatar
    Login

    Hourly Weather Graz

    Today, 21 January, Monday

    Time Temperature Precipitation Wind Pressure Humidity
    00:00 -4°C° 0 mm 0 mps 725 mmHg 79%
    01:00 -3°C° 0 mm 1 mps 725 mmHg 79%
    02:00 -3°C° 0 mm 1 mps 725 mmHg 79%
    03:00 -4°C° 0 mm 1 mps 725 mmHg 79%
    04:00 -4°C° 0 mm 1 mps 725 mmHg 79%
    05:00 -4°C° 0 mm 1 mps 725 mmHg 79%
    06:00 -4°C° 0 mm 1 mps 725 mmHg 79%
    07:00 -4°C° 0 mm 1 mps 725 mmHg 79%
    08:00 -4°C° 0 mm 0 mps 726 mmHg 75%
    09:00 -3°C° 0 mm 0 mps 726 mmHg 70%
    10:00 -1°C° 0 mm 0 mps 726 mmHg 66%
    11:00 -1°C° 0 mm 0 mps 726 mmHg 64%
    12:00 +1°C° 0 mm 1 mps 726 mmHg 61%
    13:00 +2°C° 0 mm 1 mps 725 mmHg 58%
    14:00 +1°C° 0 mm 1 mps 725 mmHg 62%
    15:00 +1°C° 0 mm 1 mps 725 mmHg 65%
    16:00 0°C° 0 mm 1 mps 725 mmHg 68%
    17:00 -2°C° 0 mm 0 mps 725 mmHg 71%
    18:00 -3°C° 0 mm 0 mps 725 mmHg 74%
    19:00 -4°C° 0 mm 0 mps 725 mmHg 77%
    20:00 -4°C° 0 mm 0 mps 725 mmHg 77%
    21:00 -4°C° 0 mm 0 mps 725 mmHg 77%
    22:00 -4°C° 0 mm 0 mps 725 mmHg 77%
    23:00 -4°C° 0 mm 0 mps 725 mmHg 77%

    Tomorrow, 22 January, Tuesday

    Time Temperature Precipitation Wind Pressure Humidity
    00:00 -5°C° 0 mm 0 mps 725 mmHg 77%
    01:00 -4°C° 0 mm 1 mps 724 mmHg 77%
    02:00 -4°C° 0 mm 1 mps 724 mmHg 77%
    03:00 -4°C° 0 mm 1 mps 723 mmHg 77%
    04:00 -4°C° 0 mm 1 mps 723 mmHg 77%
    05:00 -5°C° 0 mm 0 mps 723 mmHg 77%
    06:00 -5°C° 0 mm 0 mps 722 mmHg 76%
    07:00 -5°C° 0 mm 0 mps 722 mmHg 76%
    08:00 -4°C° 0 mm 0 mps 722 mmHg 72%
    09:00 -3°C° 0 mm 0 mps 722 mmHg 67%
    10:00 -2°C° 0 mm 0 mps 721 mmHg 62%
    11:00 -1°C° 0 mm 0 mps 720 mmHg 62%
    12:00 +1°C° 0 mm 1 mps 720 mmHg 62%
    13:00 +2°C° 0 mm 1 mps 719 mmHg 62%
    14:00 +1°C° 0 mm 1 mps 718 mmHg 66%
    15:00 0°C° 0 mm 1 mps 717 mmHg 71%
    16:00 0°C° 0 mm 1 mps 717 mmHg 75%
    17:00 -1°C° 0 mm 1 mps 716 mmHg 78%
    18:00 -2°C° 0 mm 1 mps 716 mmHg 81%
    19:00 -3°C° 0 mm 0 mps 716 mmHg 84%
    20:00 -3°C° 0 mm 0 mps 715 mmHg 83%
    21:00 -3°C° 0 mm 0 mps 715 mmHg 83%
    22:00 -3°C° 0 mm 0 mps 714 mmHg 83%
    23:00 -3°C° 0 mm 0 mps 714 mmHg 83%

    Day after tomorrow, 23 January, Wednesday

    Time Temperature Precipitation Wind Pressure Humidity
    00:00 -4°C° 0 mm 0 mps 713 mmHg 84%
    01:00 -4°C° 0 mm 0 mps 712 mmHg 84%
    02:00 -4°C° 0 mm 0 mps 712 mmHg 84%
    03:00 -4°C° 0 mm 0 mps 711 mmHg 84%
    04:00 -4°C° 0 mm 0 mps 711 mmHg 84%
    05:00 -3°C° 0.1 mm 0 mps 711 mmHg 84%
    06:00 -3°C° 0.1 mm 0 mps 711 mmHg 85%
    07:00 -3°C° 0.1 mm 0 mps 710 mmHg 85%
    08:00 -2°C° 0.2 mm 0 mps 710 mmHg 84%
    09:00 -2°C° 0.2 mm 0 mps 711 mmHg 84%
    10:00 -1°C° 0.2 mm 0 mps 711 mmHg 83%
    11:00 0°C° 0.3 mm 0 mps 710 mmHg 83%
    12:00 0°C° 0.3 mm 0 mps 710 mmHg 83%
    13:00 +1°C° 0.3 mm 0 mps 710 mmHg 83%
    14:00 +1°C° 0.5 mm 0 mps 710 mmHg 86%
    15:00 0°C° 0.5 mm 0 mps 711 mmHg 89%
    16:00 0°C° 0.5 mm 0 mps 711 mmHg 92%
    17:00 0°C° 0.2 mm 0 mps 711 mmHg 93%
    18:00 -1°C° 0.2 mm 0 mps 712 mmHg 94%
    19:00 -1°C° 0.2 mm 0 mps 712 mmHg 95%
    20:00 -1°C° 0.1 mm 0 mps 713 mmHg 95%
    21:00 -1°C° 0.1 mm 0 mps 713 mmHg 95%
    22:00 -1°C° 0.1 mm 0 mps 714 mmHg 95%
    23:00 -1°C° 0 mm 0 mps 714 mmHg 94%

    24 January, Thursday

    Time Temperature Precipitation Wind Pressure Humidity
    00:00 -1°C° 0 mm 0 mps 714 mmHg 94%
    01:00 -1°C° 0 mm 0 mps 715 mmHg 93%
    02:00 -2°C° 0 mm 0 mps 715 mmHg 93%
    03:00 -1°C° 0 mm 1 mps 715 mmHg 93%
    04:00 -1°C° 0 mm 1 mps 715 mmHg 92%
    05:00 -2°C° 0 mm 1 mps 716 mmHg 91%
    06:00 -2°C° 0 mm 1 mps 716 mmHg 90%
    07:00 -2°C° 0 mm 1 mps 716 mmHg 88%
    08:00 -1°C° 0 mm 1 mps 717 mmHg 84%
    09:00 0°C° 0 mm 1 mps 717 mmHg 79%
    10:00 +1°C° 0 mm 1 mps 718 mmHg 75%
    11:00 +2°C° 0 mm 1 mps 718 mmHg 72%
    12:00 +3°C° 0 mm 1 mps 718 mmHg 70%
    13:00 +4°C° 0 mm 1 mps 718 mmHg 68%
    14:00 +4°C° 0 mm 1 mps 718 mmHg 72%
    15:00 +3°C° 0 mm 1 mps 718 mmHg 76%
    16:00 +2°C° 0 mm 1 mps 717 mmHg 80%
    17:00 +1°C° 0 mm 1 mps 718 mmHg 82%
    18:00 0°C° 0 mm 1 mps 718 mmHg 84%
    19:00 -3°C° 0 mm 2 mps 719 mmHg 86%
    20:00 -3°C° 0 mm 2 mps 719 mmHg 83%
    21:00 -3°C° 0 mm 2 mps 719 mmHg 80%
    22:00 -3°C° 0 mm 2 mps 720 mmHg 78%
    23:00 -3°C° 0 mm 2 mps 720 mmHg 78%

    25 January, Friday

    Time Temperature Precipitation Wind Pressure Humidity
    00:00 -3°C° 0 mm 2 mps 720 mmHg 78%
    01:00 -3°C° 0 mm 2 mps 719 mmHg 78%
    02:00 -4°C° 0 mm 2 mps 719 mmHg 79%
    03:00 -4°C° 0 mm 2 mps 719 mmHg 80%
    04:00 -4°C° 0 mm 2 mps 719 mmHg 81%
    05:00 -4°C° 0 mm 2 mps 720 mmHg 80%
    06:00 -5°C° 0 mm 2 mps 720 mmHg 79%
    07:00 -5°C° 0 mm 2 mps 720 mmHg 79%
    08:00 -4°C° 0 mm 2 mps 720 mmHg 74%
    09:00 -4°C° 0 mm 3 mps 721 mmHg 70%
    10:00 -2°C° 0 mm 3 mps 721 mmHg 65%
    11:00 -1°C° 0 mm 3 mps 721 mmHg 63%
    12:00 0°C° 0 mm 3 mps 721 mmHg 60%
    13:00 +1°C° 0 mm 3 mps 721 mmHg 57%
    14:00 +1°C° 0 mm 2 mps 721 mmHg 60%
    15:00 -1°C° 0 mm 2 mps 721 mmHg 64%
    16:00 -1°C° 0 mm 2 mps 721 mmHg 67%
    17:00 -2°C° 0 mm 2 mps 721 mmHg 71%
    18:00 -3°C° 0 mm 2 mps 721 mmHg 74%
    19:00 -4°C° 0 mm 2 mps 722 mmHg 78%
    20:00 -5°C° 0 mm 2 mps 722 mmHg 78%
    21:00 -5°C° 0 mm 2 mps 722 mmHg 78%
    22:00 -3°C° 0 mm 1 mps 722 mmHg 79%
    23:00 -5°C° 0 mm 2 mps 722 mmHg 79%

    26 January, Saturday

    Time Temperature Precipitation Wind Pressure Humidity
    00:00 -6°C° 0 mm 2 mps 722 mmHg 79%
    01:00 -6°C° 0 mm 2 mps 722 mmHg 79%
    02:00 -6°C° 0 mm 2 mps 722 mmHg 79%
    03:00 -6°C° 0 mm 2 mps 722 mmHg 79%
    04:00 -6°C° 0 mm 2 mps 722 mmHg 79%
    05:00 -6°C° 0 mm 2 mps 722 mmHg 79%
    06:00 -6°C° 0 mm 2 mps 722 mmHg 79%
    07:00 -6°C° 0 mm 2 mps 722 mmHg 79%
    08:00 -5°C° 0 mm 2 mps 722 mmHg 76%
    09:00 -1°C° 0 mm 1 mps 722 mmHg 72%
    10:00 0°C° 0 mm 1 mps 722 mmHg 68%
    11:00 +2°C° 0 mm 1 mps 721 mmHg 66%
    12:00 +3°C° 0 mm 1 mps 721 mmHg 64%
    13:00 +4°C° 0 mm 0 mps 721 mmHg 62%
    14:00 +4°C° 0 mm 1 mps 720 mmHg 65%
    15:00 +3°C° 0 mm 1 mps 720 mmHg 69%
    16:00 +3°C° 0 mm 1 mps 719 mmHg 73%
    17:00 +2°C° 0 mm 1 mps 719 mmHg 76%
    18:00 0°C° 0 mm 1 mps 719 mmHg 78%
    19:00 -1°C° 0 mm 1 mps 719 mmHg 81%
    20:00 -1°C° 0 mm 1 mps 718 mmHg 81%
    21:00 -1°C° 0 mm 1 mps 718 mmHg 81%
    22:00 -1°C° 0 mm 1 mps 717 mmHg 81%
    23:00 -2°C° 0 mm 1 mps 717 mmHg 80%
    Show more